• In Deutschland
  • Länderverzeichnis
  • Für 7 Tage
  • Wassertemperatur
  • Satellitenkarten
  • Wetterkarte
  • Widgets
  • user-avatar
    Anmelden

    Stündliche Wetter Djambala

    Heute, 22 November, Mittwoch

    Zeit Temperatur Niederschläge Wind Luftdruck Luftfeuchtigkeit
    00:00 +23°C° 0,3 mm 1 m/S 694 mmHg 90%
    01:00 +22°C° 0 mm 1 m/S 694 mmHg 91%
    02:00 +22°C° 0,2 mm 1 m/S 693 mmHg 92%
    03:00 +22°C° 0,2 mm 1 m/S 693 mmHg 93%
    04:00 +21°C° 0,2 mm 1 m/S 693 mmHg 95%
    05:00 +21°C° 0 mm 2 m/S 693 mmHg 93%
    06:00 +21°C° 0 mm 2 m/S 694 mmHg 92%
    07:00 +23°C° 0 mm 2 m/S 694 mmHg 90%
    08:00 +25°C° 0,9 mm 2 m/S 694 mmHg 84%
    09:00 +26°C° 0,9 mm 2 m/S 695 mmHg 77%
    10:00 +28°C° 0,9 mm 2 m/S 695 mmHg 71%
    11:00 +29°C° 1,1 mm 1 m/S 694 mmHg 67%
    12:00 +30°C° 1,1 mm 1 m/S 694 mmHg 64%
    13:00 +29°C° 1,1 mm 0 m/S 694 mmHg 60%
    14:00 +28°C° 1,1 mm 0 m/S 693 mmHg 63%
    15:00 +29°C° 1,1 mm 1 m/S 693 mmHg 66%
    16:00 +29°C° 1,1 mm 1 m/S 692 mmHg 68%
    17:00 +27°C° 1,6 mm 1 m/S 692 mmHg 75%
    18:00 +25°C° 1,6 mm 1 m/S 693 mmHg 81%
    19:00 +23°C° 1,6 mm 1 m/S 693 mmHg 88%
    20:00 +23°C° 0,1 mm 1 m/S 693 mmHg 89%
    21:00 +23°C° 0,1 mm 1 m/S 694 mmHg 90%
    22:00 +23°C° 0,1 mm 2 m/S 694 mmHg 91%
    23:00 +21°C° 0,1 mm 2 m/S 694 mmHg 91%

    Morgen, 23 November, Donnerstag

    Zeit Temperatur Niederschläge Wind Luftdruck Luftfeuchtigkeit
    00:00 +21°C° 0,1 mm 2 m/S 694 mmHg 92%
    01:00 +21°C° 0,1 mm 2 m/S 694 mmHg 92%
    02:00 +21°C° 0,1 mm 2 m/S 693 mmHg 93%
    03:00 +21°C° 0,1 mm 1 m/S 693 mmHg 94%
    04:00 +21°C° 0,1 mm 1 m/S 693 mmHg 95%
    05:00 +21°C° 0,1 mm 2 m/S 693 mmHg 94%
    06:00 +21°C° 0,1 mm 2 m/S 694 mmHg 93%
    07:00 +21°C° 0,1 mm 2 m/S 694 mmHg 92%
    08:00 +24°C° 0,8 mm 2 m/S 694 mmHg 88%
    09:00 +25°C° 0,8 mm 2 m/S 695 mmHg 84%
    10:00 +26°C° 0,8 mm 3 m/S 695 mmHg 80%
    11:00 +26°C° 1,6 mm 3 m/S 694 mmHg 79%
    12:00 +26°C° 1,6 mm 3 m/S 694 mmHg 78%
    13:00 +27°C° 1,6 mm 3 m/S 693 mmHg 77%
    14:00 +26°C° 1,6 mm 2 m/S 693 mmHg 80%
    15:00 +26°C° 1,6 mm 2 m/S 693 mmHg 83%
    16:00 +25°C° 1,6 mm 2 m/S 692 mmHg 85%
    17:00 +24°C° 0,5 mm 2 m/S 693 mmHg 87%
    18:00 +23°C° 0,5 mm 1 m/S 693 mmHg 89%
    19:00 +23°C° 0,5 mm 1 m/S 694 mmHg 91%
    20:00 +22°C° 0,1 mm 1 m/S 694 mmHg 92%
    21:00 +22°C° 0,1 mm 1 m/S 694 mmHg 92%
    22:00 +22°C° 0,1 mm 1 m/S 695 mmHg 93%
    23:00 +21°C° 0,1 mm 2 m/S 695 mmHg 94%

    übermorgen, 24 November, Freitag

    Zeit Temperatur Niederschläge Wind Luftdruck Luftfeuchtigkeit
    00:00 +21°C° 0,1 mm 2 m/S 694 mmHg 94%
    01:00 +20°C° 0,1 mm 2 m/S 694 mmHg 95%
    02:00 +20°C° 0 mm 2 m/S 694 mmHg 95%
    03:00 +20°C° 0 mm 2 m/S 694 mmHg 96%
    04:00 +20°C° 0 mm 2 m/S 693 mmHg 96%
    05:00 +20°C° 0 mm 2 m/S 694 mmHg 95%
    06:00 +21°C° 0 mm 2 m/S 694 mmHg 93%
    07:00 +21°C° 0 mm 2 m/S 695 mmHg 92%
    08:00 +23°C° 0,1 mm 2 m/S 695 mmHg 86%
    09:00 +25°C° 0,1 mm 2 m/S 695 mmHg 80%
    10:00 +26°C° 0,1 mm 2 m/S 696 mmHg 75%
    11:00 +27°C° 0,7 mm 2 m/S 695 mmHg 72%
    12:00 +28°C° 0,7 mm 2 m/S 695 mmHg 69%
    13:00 +28°C° 0,7 mm 2 m/S 694 mmHg 66%
    14:00 +28°C° 1 mm 2 m/S 694 mmHg 70%
    15:00 +27°C° 1 mm 2 m/S 693 mmHg 74%
    16:00 +27°C° 1 mm 2 m/S 693 mmHg 78%
    17:00 +25°C° 0,8 mm 2 m/S 693 mmHg 82%
    18:00 +24°C° 0,8 mm 1 m/S 694 mmHg 86%
    19:00 +23°C° 0,8 mm 1 m/S 694 mmHg 90%
    20:00 +23°C° 0,2 mm 1 m/S 695 mmHg 91%
    21:00 +22°C° 0,2 mm 1 m/S 695 mmHg 92%
    22:00 +22°C° 0,2 mm 1 m/S 695 mmHg 93%
    23:00 +21°C° 0,1 mm 2 m/S 695 mmHg 94%

    25 November, Samstag

    Zeit Temperatur Niederschläge Wind Luftdruck Luftfeuchtigkeit
    00:00 +21°C° 0,1 mm 2 m/S 695 mmHg 94%
    01:00 +20°C° 0,1 mm 2 m/S 694 mmHg 95%
    02:00 +20°C° 0 mm 2 m/S 694 mmHg 95%
    03:00 +20°C° 0 mm 2 m/S 694 mmHg 95%
    04:00 +20°C° 0 mm 2 m/S 694 mmHg 96%
    05:00 +20°C° 0 mm 2 m/S 694 mmHg 95%
    06:00 +20°C° 0 mm 2 m/S 695 mmHg 94%
    07:00 +20°C° 0 mm 2 m/S 695 mmHg 93%
    08:00 +23°C° 0 mm 2 m/S 696 mmHg 87%
    09:00 +24°C° 0 mm 2 m/S 696 mmHg 81%
    10:00 +25°C° 0 mm 2 m/S 696 mmHg 74%
    11:00 +26°C° 0 mm 2 m/S 696 mmHg 69%
    12:00 +27°C° 0 mm 2 m/S 695 mmHg 63%
    13:00 +29°C° 0 mm 2 m/S 695 mmHg 57%
    14:00 +28°C° 0 mm 2 m/S 694 mmHg 57%
    15:00 +28°C° 0 mm 2 m/S 694 mmHg 58%
    16:00 +28°C° 0 mm 2 m/S 693 mmHg 59%
    17:00 +27°C° 0 mm 2 m/S 694 mmHg 64%
    18:00 +25°C° 0 mm 1 m/S 694 mmHg 69%
    19:00 +24°C° 0 mm 1 m/S 695 mmHg 75%
    20:00 +23°C° 0,1 mm 1 m/S 695 mmHg 76%
    21:00 +23°C° 0,1 mm 1 m/S 695 mmHg 77%
    22:00 +23°C° 0,1 mm 1 m/S 696 mmHg 78%
    23:00 +23°C° 0,1 mm 1 m/S 695 mmHg 79%

    26 November, Sonntag

    Zeit Temperatur Niederschläge Wind Luftdruck Luftfeuchtigkeit
    00:00 +22°C° 0,1 mm 1 m/S 695 mmHg 80%
    01:00 +22°C° 0,1 mm 1 m/S 695 mmHg 81%
    02:00 +22°C° 0,1 mm 1 m/S 695 mmHg 82%
    03:00 +22°C° 0,1 mm 1 m/S 695 mmHg 83%
    04:00 +21°C° 0,1 mm 1 m/S 695 mmHg 83%
    05:00 +22°C° 0,1 mm 1 m/S 695 mmHg 84%
    06:00 +22°C° 0,1 mm 1 m/S 696 mmHg 85%
    07:00 +22°C° 0,1 mm 1 m/S 696 mmHg 86%
    08:00 +24°C° 0,2 mm 1 m/S 697 mmHg 81%
    09:00 +25°C° 0,2 mm 1 m/S 697 mmHg 75%
    10:00 +27°C° 0,2 mm 1 m/S 697 mmHg 70%
    11:00 +28°C° 0,2 mm 1 m/S 697 mmHg 64%
    12:00 +29°C° 0,2 mm 1 m/S 696 mmHg 59%
    13:00 +30°C° 0,2 mm 1 m/S 696 mmHg 54%
    14:00 +29°C° 0,7 mm 2 m/S 695 mmHg 59%
    15:00 +28°C° 0,7 mm 2 m/S 695 mmHg 65%
    16:00 +27°C° 0,7 mm 3 m/S 694 mmHg 71%
    17:00 +25°C° 0,6 mm 2 m/S 695 mmHg 78%
    18:00 +24°C° 0,6 mm 2 m/S 695 mmHg 85%
    19:00 +22°C° 0,6 mm 1 m/S 695 mmHg 92%
    20:00 +22°C° 0 mm 1 m/S 696 mmHg 93%
    21:00 +22°C° 0 mm 1 m/S 696 mmHg 94%
    22:00 +21°C° 0 mm 1 m/S 696 mmHg 94%
    23:00 +21°C° 0 mm 1 m/S 696 mmHg 94%

    27 November, Montag

    Zeit Temperatur Niederschläge Wind Luftdruck Luftfeuchtigkeit
    00:00 +21°C° 0 mm 1 m/S 695 mmHg 94%
    01:00 +22°C° 0 mm 1 m/S 695 mmHg 94%
    02:00 +21°C° 0 mm 1 m/S 695 mmHg 94%
    03:00 +21°C° 0 mm 1 m/S 695 mmHg 95%
    04:00 +21°C° 0 mm 1 m/S 695 mmHg 95%
    05:00 +21°C° 0 mm 1 m/S 695 mmHg 94%
    06:00 +22°C° 0 mm 1 m/S 695 mmHg 92%
    07:00 +22°C° 0 mm 1 m/S 696 mmHg 91%
    08:00 +24°C° 0 mm 1 m/S 696 mmHg 82%
    09:00 +26°C° 0 mm 1 m/S 697 mmHg 73%
    10:00 +28°C° 0 mm 1 m/S 697 mmHg 64%
    11:00 +30°C° 0 mm 1 m/S 696 mmHg 58%
    12:00 +30°C° 0 mm 0 m/S 696 mmHg 53%
    13:00 +31°C° 0 mm 0 m/S 695 mmHg 48%
    14:00 +30°C° 0 mm 0 m/S 695 mmHg 50%
    15:00 +29°C° 0 mm 0 m/S 694 mmHg 52%
    16:00 +28°C° 0 mm 0 m/S 693 mmHg 55%
    17:00 +27°C° 0 mm 0 m/S 694 mmHg 58%
    18:00 +27°C° 0 mm 1 m/S 694 mmHg 62%
    19:00 +26°C° 0 mm 1 m/S 694 mmHg 65%
    20:00 +25°C° 0 mm 1 m/S 695 mmHg 67%
    21:00 +25°C° 0 mm 1 m/S 695 mmHg 70%
    22:00 +24°C° 0 mm 1 m/S 695 mmHg 72%
    23:00 +24°C° 0,1 mm 1 m/S 695 mmHg 76%
    Mehr zeigen